EW9363 Weather Reports


Display with metric or nautical units.
time (UTC)temp
F
wind
direction
speed
MPH
gust
MPH
rain 1hr
in
rain 24hr
in
rain mn
in
humidity
%
barometer
mb
20260506123755 65 192 0.0 3.0 0.00 0.00 0.00 87 1017.9
20260506123514 65 192 1.0 4.0 0.00 0.00 0.00 88 1017.8
20260506122751 65 194 2.0 7.0 0.00 0.00 0.00 88 1017.8
20260506122728 64 198 2.0 7.0 0.00 0.00 0.00 88 1017.8
20260506121751 64 192 2.0 7.0 0.00 0.00 0.00 88 1017.6
20260506121250 64 201 3.0 8.0 0.00 0.00 0.00 88 1017.5
20260506120750 64 219 2.0 8.0 0.00 0.00 0.00 89 1017.3
20260506120247 63 201 3.0 9.0 0.00 0.00 0.00 89 1017.4
20260506115749 63 219 3.0 9.0 0.00 0.00 0.00 90 1017.4
20260506115248 62 202 2.0 9.0 0.00 0.00 0.00 90 1017.4
20260506114743 61 198 1.0 8.0 0.00 0.00 0.00 91 1017.3
20260506114237 61 171 1.0 6.0 0.00 0.00 0.00 92 1017.2
20260506113730 60 220 1.0 4.0 0.00 0.00 0.00 92 1017.3
20260506113224 60 220 1.0 4.0 0.00 0.00 0.00 93 1017.3
20260506112938 59 209 1.0 4.0 0.00 0.00 0.00 94 1017.2
20260506112213 59 197 0.0 4.0 0.00 0.00 0.00 94 1017.3
20260506111706 58 195 0.0 3.0 0.00 0.00 0.00 94 1017.3
20260506111200 58 195 0.0 1.0 0.00 0.00 0.00 94 1017.2
20260506110654 58 195 0.0 1.0 0.00 0.00 0.00 93 1017.2
20260506110148 58 195 0.0 0.0 0.00 0.00 0.00 93 1017.2
20260506105642 58 195 0.0 1.0 0.00 0.00 0.00 93 1017.2
20260506105136 58 195 0.0 1.0 0.00 0.00 0.00 93 1017.2
20260506104631 58 195 0.0 1.0 0.00 0.00 0.00 92 1017.1
20260506104124 58 195 0.0 0.0 0.00 0.00 0.00 92 1017.1
20260506103618 58 195 0.0 0.0 0.00 0.00 0.00 92 1016.9
20260506103112 58 195 0.0 0.0 0.00 0.00 0.00 92 1017.0
20260506102606 58 195 0.0 0.0 0.00 0.00 0.00 92 1017.0
20260506102101 58 195 0.0 0.0 0.00 0.00 0.00 92 1017.1
20260506101554 58 195 0.0 0.0 0.00 0.00 0.00 92 1017.2
20260506101048 58 195 0.0 0.0 0.00 0.00 0.00 92 1017.3
20260506100542 58 195 0.0 0.0 0.00 0.00 0.00 92 1017.2
20260506100036 58 195 0.0 0.0 0.00 0.00 0.00 92 1017.2
20260506095530 58 195 0.0 0.0 0.00 0.00 0.00 92 1017.0
20260506095025 58 195 0.0 0.0 0.00 0.00 0.00 92 1017.0
20260506094738 58 195 0.0 0.0 0.00 0.00 0.00 92 1017.1
20260506094012 58 195 0.0 0.0 0.00 0.00 0.00 92 1017.2
20260506093506 58 195 0.0 0.0 0.00 0.00 0.00 91 1017.4
20260506093000 58 195 0.0 0.0 0.00 0.00 0.00 92 1017.3
20260506092455 58 195 0.0 0.0 0.00 0.00 0.00 91 1017.3
20260506091949 58 195 0.0 0.0 0.00 0.00 0.00 91 1017.3
20260506091705 58 195 0.0 0.0 0.00 0.00 0.00 91 1017.3
20260506090936 58 195 0.0 0.0 0.00 0.00 0.00 91 1017.5
20260506090430 58 195 0.0 0.0 0.00 0.00 0.00 91 1017.5
20260506085924 58 195 0.0 0.0 0.00 0.00 0.00 91 1017.6
20260506085649 58 195 0.0 0.0 0.00 0.00 0.00 91 1017.6
20260506084918 58 195 0.0 0.0 0.00 0.00 0.00 91 1017.6
20260506084415 58 195 0.0 0.0 0.00 0.00 0.00 90 1017.6
20260506083915 58 195 0.0 0.0 0.00 0.00 0.00 90 1017.5
20260506083412 58 195 0.0 0.0 0.00 0.00 0.00 90 1017.6
20260506082910 58 195 0.0 0.0 0.00 0.00 0.00 90 1017.5
20260506082413 58 195 0.0 0.0 0.00 0.00 0.00 89 1017.6
20260506081911 58 195 0.0 0.0 0.00 0.00 0.00 89 1017.5
20260506081410 58 195 0.0 0.0 0.00 0.00 0.00 88 1017.5
20260506080909 58 195 0.0 0.0 0.00 0.00 0.00 88 1017.4
20260506080406 59 195 0.0 0.0 0.00 0.00 0.00 88 1017.3
20260506072857 60 195 0.0 0.0 0.00 0.00 0.00 86 1017.3
20260506072358 60 195 0.0 0.0 0.00 0.00 0.00 86 1017.3
20260506072119 61 195 0.0 1.0 0.00 0.00 0.00 85 1017.3
20260506071353 61 195 0.0 1.0 0.00 0.00 0.00 85 1017.2
20260506070854 61 196 0.0 0.0 0.00 0.00 0.00 85 1017.4
20260506070838 61 196 0.0 0.0 0.00 0.00 0.00 84 1017.4
20260506061854 63 196 0.0 1.0 0.00 0.00 0.00 82 1017.5
20260506061619 63 196 0.0 1.0 0.00 0.00 0.00 81 1017.2
20260506060852 64 196 0.0 2.0 0.00 0.00 0.00 81 1017.1
20260506060623 64 196 0.0 2.0 0.00 0.00 0.00 81 1017.1
20260506051406 64 215 1.0 4.0 0.00 0.00 0.00 80 1018.0
20260506050528 64 202 1.0 4.0 0.00 0.00 0.00 80 1018.0
20260506045026 64 205 1.0 5.0 0.00 0.00 0.00 80 1018.2
20260506044301 64 207 1.0 5.0 0.00 0.00 0.00 80 1018.1
20260506043758 64 200 1.0 4.0 0.00 0.00 0.00 81 1018.2
20260506043300 63 150 0.0 3.0 0.00 0.00 0.00 81 1018.4
20260506043240 63 202 0.0 2.0 0.00 0.00 0.00 81 1018.3
20260506042300 63 201 0.0 2.0 0.00 0.00 0.00 81 1018.3
20260506041756 63 180 0.0 3.0 0.00 0.00 0.00 80 1018.5
20260506041253 63 180 0.0 3.0 0.00 0.00 0.00 80 1018.4
20260506040752 63 185 0.0 3.0 0.00 0.00 0.00 80 1018.4
20260506040252 64 185 0.0 3.0 0.00 0.00 0.00 79 1018.3
20260506035750 64 198 0.0 0.0 0.00 0.00 0.00 78 1018.2
20260506035245 64 198 0.0 0.0 0.00 0.00 0.00 78 1018.3
20260506034739 64 198 0.0 0.0 0.00 0.00 0.00 78 1018.3
20260506034232 64 198 0.0 0.0 0.00 0.00 0.00 77 1018.3
20260506033726 65 198 0.0 1.0 0.00 0.00 0.00 77 1018.3
20260506033221 65 198 0.0 2.0 0.00 0.00 0.00 76 1018.2
20260506032714 65 199 0.0 2.0 0.00 0.00 0.00 76 1018.5
20260506032208 65 197 0.0 2.0 0.00 0.00 0.00 76 1018.5
20260506031924 66 218 0.0 3.0 0.00 0.00 0.00 75 1018.6
20260506031156 66 218 1.0 4.0 0.00 0.00 0.00 75 1018.6
20260506030656 66 190 1.0 4.0 0.00 0.00 0.00 74 1018.6
20260506030153 66 142 2.0 5.0 0.00 0.00 0.00 74 1018.7
20260506025930 66 205 2.0 5.0 0.00 0.00 0.00 74 1018.8
20260506025146 67 194 1.0 4.0 0.00 0.00 0.00 73 1018.8
20260506024640 67 189 1.0 7.0 0.00 0.00 0.00 73 1018.7
20260506024134 67 181 2.0 7.0 0.00 0.00 0.00 73 1018.9
20260506023628 67 205 2.0 8.0 0.00 0.00 0.00 72 1018.7
20260506023347 67 206 3.0 8.0 0.00 0.00 0.00 72 1018.7
20260506022838 67 184 3.0 7.0 0.00 0.00 0.00 72 1018.6
20260506022110 67 242 2.0 7.0 0.00 0.00 0.00 71 1018.7
20260506021604 68 200 1.0 7.0 0.00 0.00 0.00 71 1018.5
20260506021058 68 215 1.0 5.0 0.00 0.00 0.00 71 1018.4
20260506020552 68 185 1.0 5.0 0.00 0.00 0.00 70 1018.4
20260506020045 68 212 1.0 8.0 0.00 0.00 0.00 70 1018.2
20260506015540 69 215 2.0 8.0 0.00 0.00 0.00 70 1018.2
20260506015520 69 205 2.0 11.0 0.00 0.00 0.00 69 1018.1
20260506014528 69 207 3.0 11.0 0.00 0.00 0.00 69 1018.1
20260506014022 69 142 2.0 6.0 0.00 0.00 0.00 69 1018.0
20260506013516 69 173 2.0 7.0 0.00 0.00 0.00 68 1017.8
20260506013010 69 207 3.0 8.0 0.00 0.00 0.00 68 1017.9
20260506012504 70 188 3.0 8.0 0.00 0.00 0.00 68 1017.7
20260506011958 70 173 1.0 8.0 0.00 0.00 0.00 68 1017.8
20260506011452 70 162 2.0 8.0 0.00 0.00 0.00 67 1017.6
20260506010946 70 173 2.0 10.0 0.00 0.00 0.00 67 1017.7
20260506010708 71 176 2.0 10.0 0.00 0.00 0.00 66 1017.6
20260506005937 71 95 2.0 7.0 0.00 0.00 0.00 66 1017.7
20260506005702 71 257 1.0 6.0 0.00 0.00 0.00 65 1017.4
20260506004935 71 152 2.0 6.0 0.00 0.00 0.00 65 1017.4
20260506004434 71 174 2.0 6.0 0.00 0.00 0.00 64 1017.4
20260506003934 72 156 2.0 8.0 0.00 0.00 0.00 63 1017.3
20260506003435 72 194 1.0 8.0 0.00 0.00 0.00 62 1017.3
20260506002933 73 209 1.0 6.0 0.00 0.00 0.00 61 1017.4
20260506002434 73 171 1.0 5.0 0.00 0.00 0.00 61 1017.3
20260506002418 73 171 1.0 5.0 0.00 0.00 0.00 60 1017.4
20260506001431 74 153 2.0 7.0 0.00 0.00 0.00 59 1017.1
20260506000932 74 202 3.0 9.0 0.00 0.00 0.00 58 1017.2
20260506000920 74 184 3.0 9.0 0.00 0.00 0.00 58 1017.2
20260505235931 74 200 2.0 7.0 0.00 0.00 0.00 57 1017.1
20260505235430 75 254 2.0 7.0 0.00 0.00 0.00 57 1017.0
20260505234931 75 192 3.0 11.0 0.00 0.00 0.00 57 1016.9
20260505234426 75 179 3.0 11.0 0.00 0.00 0.00 56 1017.0
20260505234145 76 171 2.0 8.0 0.00 0.00 0.00 56 1016.9
20260505233648 76 217 2.0 9.0 0.00 0.00 0.00 56 1016.9
20260505233148 76 177 2.0 9.0 0.00 0.00 0.00 56 1016.8
20260505232426 77 216 3.0 9.0 0.00 0.00 0.00 56 1016.7
20260505232146 77 217 3.0 9.0 0.00 0.00 0.00 54 1016.7
20260505231426 78 212 2.0 9.0 0.00 0.00 0.00 54 1016.5
20260505230925 78 118 1.0 7.0 0.00 0.00 0.00 53 1016.5
20260505230646 78 188 1.0 7.0 0.00 0.00 0.00 53 1016.5
20260505225924 79 190 2.0 7.0 0.00 0.00 0.00 52 1016.5
20260505225424 79 157 2.0 9.0 0.00 0.00 0.00 51 1016.6
20260505224926 79 186 3.0 9.0 0.00 0.00 0.00 49 1016.6
20260505224424 79 196 4.0 9.0 0.00 0.00 0.00 46 1016.8
20260505223926 80 171 3.0 9.0 0.00 0.00 0.00 46 1016.9
20260505223425 80 189 2.0 8.0 0.00 0.00 0.00 45 1016.8
20260505222925 80 208 2.0 8.0 0.00 0.00 0.00 45 1016.8
20260505222424 80 220 2.0 9.0 0.00 0.00 0.00 46 1016.8
20260505221923 80 213 2.0 9.0 0.00 0.00 0.00 44 1016.7
20260505221417 80 192 2.0 6.0 0.00 0.00 0.00 44 1016.8
20260505220910 80 209 2.0 8.0 0.00 0.00 0.00 47 1016.7
20260505220638 80 198 3.0 8.0 0.00 0.00 0.00 46 1016.6
20260505215859 80 200 3.0 8.0 0.00 0.00 0.00 47 1016.7
20260505215353 80 190 2.0 7.0 0.00 0.00 0.00 48 1016.7
20260505214847 80 182 3.0 7.0 0.00 0.00 0.00 49 1016.8
20260505214341 80 204 3.0 11.0 0.00 0.00 0.00 48 1016.8
20260505213835 79 213 2.0 11.0 0.00 0.00 0.00 48 1016.9
20260505213328 79 196 2.0 10.0 0.00 0.00 0.00 49 1016.9
20260505212822 79 207 3.0 10.0 0.00 0.00 0.00 48 1016.8
20260505212315 79 199 3.0 7.0 0.00 0.00 0.00 48 1016.9
20260505212033 80 182 3.0 7.0 0.00 0.00 0.00 48 1017.0
20260505211311 80 313 3.0 6.0 0.00 0.00 0.00 47 1017.1
20260505210812 80 208 3.0 7.0 0.00 0.00 0.00 46 1017.1
20260505210309 80 209 3.0 8.0 0.00 0.00 0.00 45 1017.1
20260505205808 81 192 3.0 8.0 0.00 0.00 0.00 46 1017.0
20260505205310 81 202 3.0 7.0 0.00 0.00 0.00 45 1017.0
20260505204807 81 152 3.0 11.0 0.00 0.00 0.00 44 1016.9
20260505204534 81 321 3.0 11.0 0.00 0.00 0.00 46 1017.1
20260505203806 81 188 3.0 9.0 0.00 0.00 0.00 45 1017.1
20260505203304 82 202 2.0 9.0 0.00 0.00 0.00 45 1017.1
20260505202804 81 159 2.0 6.0 0.00 0.00 0.00 48 1017.1
20260505202307 81 203 2.0 9.0 0.00 0.00 0.00 48 1017.3
20260505201802 81 206 3.0 11.0 0.00 0.00 0.00 47 1017.2
20260505201302 81 265 4.0 13.0 0.00 0.00 0.00 47 1017.4
20260505200801 81 191 4.0 13.0 0.00 0.00 0.00 48 1017.4
20260505200302 81 169 3.0 10.0 0.00 0.00 0.00 47 1017.4
20260505195759 81 128 3.0 9.0 0.00 0.00 0.00 46 1017.5
20260505195253 81 192 4.0 11.0 0.00 0.00 0.00 48 1017.6
20260505194748 81 186 3.0 11.0 0.00 0.00 0.00 47 1017.7
20260505194506 81 177 4.0 12.0 0.00 0.00 0.00 48 1017.6
20260505193735 81 207 4.0 12.0 0.00 0.00 0.00 47 1017.8
20260505193229 82 193 4.0 9.0 0.00 0.00 0.00 47 1017.9
20260505192723 81 217 3.0 9.0 0.00 0.00 0.00 49 1018.0
20260505192446 81 207 3.0 11.0 0.00 0.00 0.00 48 1018.1
20260505191711 81 151 3.0 11.0 0.00 0.00 0.00 49 1018.2
20260505191206 81 157 3.0 8.0 0.00 0.00 0.00 50 1018.1
20260505190659 81 161 3.0 8.0 0.00 0.00 0.00 50 1018.2
20260505190153 81 40 2.0 9.0 0.00 0.00 0.00 50 1018.2
20260505185647 81 207 2.0 9.0 0.00 0.00 0.00 49 1018.2
20260505185140 81 183 2.0 8.0 0.00 0.00 0.00 48 1018.3
20260505184636 82 182 2.0 8.0 0.00 0.00 0.00 47 1018.3
20260505184351 82 141 3.0 8.0 0.00 0.00 0.00 50 1018.5
20260505183623 82 235 3.0 10.0 0.00 0.00 0.00 48 1018.5
20260505183117 82 182 2.0 10.0 0.00 0.00 0.00 48 1018.5
20260505182611 81 163 2.0 8.0 0.00 0.00 0.00 50 1018.6
20260505182105 81 184 3.0 7.0 0.00 0.00 0.00 48 1018.7
20260505181600 81 163 2.0 7.0 0.00 0.00 0.00 48 1018.7
20260505181053 82 234 2.0 7.0 0.00 0.00 0.00 48 1018.7
20260505180547 81 171 3.0 6.0 0.00 0.00 0.00 50 1018.7
20260505180042 81 165 2.0 7.0 0.00 0.00 0.00 49 1018.6
20260505175535 81 194 2.0 7.0 0.00 0.00 0.00 52 1018.8
20260505175029 80 201 3.0 7.0 0.00 0.00 0.00 52 1018.7
20260505174523 80 207 2.0 6.0 0.00 0.00 0.00 52 1018.8
20260505174017 80 208 2.0 7.0 0.00 0.00 0.00 51 1018.8
20260505173511 80 198 2.0 6.0 0.00 0.00 0.00 52 1018.8
20260505173005 80 207 2.0 7.0 0.00 0.00 0.00 51 1018.8
20260505172459 79 217 2.0 7.0 0.00 0.00 0.00 52 1019.0
20260505171953 79 207 2.0 6.0 0.00 0.00 0.00 53 1019.0
20260505171447 79 207 3.0 7.0 0.00 0.00 0.00 52 1019.2
20260505171425 80 191 2.0 11.0 0.00 0.00 0.00 52 1019.4
20260505170438 80 96 2.0 11.0 0.00 0.00 0.00 52 1019.4
20260505165937 79 157 3.0 11.0 0.00 0.00 0.00 53 1019.5
20260505165438 79 136 2.0 8.0 0.00 0.00 0.00 53 1019.4
20260505164938 79 188 2.0 8.0 0.00 0.00 0.00 53 1019.6
20260505164438 78 220 2.0 9.0 0.00 0.00 0.00 53 1019.7
20260505164202 79 176 3.0 9.0 0.00 0.00 0.00 54 1019.7
20260505163437 79 229 2.0 6.0 0.00 0.00 0.00 53 1019.8
20260505163158 79 162 2.0 9.0 0.00 0.00 0.00 54 1019.7
20260505162439 78 175 2.0 9.0 0.00 0.00 0.00 56 1019.8
20260505161939 78 215 3.0 9.0 0.00 0.00 0.00 55 1019.7
20260505161438 78 223 3.0 7.0 0.00 0.00 0.00 54 1019.8
20260505161159 78 153 2.0 6.0 0.00 0.00 0.00 55 1019.9
20260505160438 78 213 1.0 5.0 0.00 0.00 0.00 56 1019.8
20260505152939 75 200 4.0 10.0 0.00 0.00 0.00 60 1020.2
20260505152438 75 218 2.0 10.0 0.00 0.00 0.00 61 1020.3
20260505152203 75 205 2.0 6.0 0.00 0.00 0.00 62 1020.3
20260505151439 74 320 3.0 12.0 0.00 0.00 0.00 66 1020.2
20260505150938 74 229 3.0 12.0 0.00 0.00 0.00 62 1020.3
20260505150438 73 315 4.0 10.0 0.00 0.00 0.00 63 1020.2
20260505140413 68 90 2.0 7.0 0.00 0.00 0.00 76 1020.1
20260505140136 68 200 1.0 7.0 0.00 0.00 0.00 76 1020.1
20260505124402 58 194 1.0 5.0 0.00 0.00 0.00 92 1019.9
20260505124119 58 228 1.0 4.0 0.00 0.00 0.00 93 1019.9